Hourly Weather Roundup
Issued by NWS Central Illinois

Home | Current Version | Previous Version | Graphics & Text | Print | Product List | Glossary On
Versions: 1 2 3 4 5 6 7 8 9 10 11 12 13 14 15 16 17 18 19 20 21 22 23 24 25 26 27 28 29 30 31 32 33 34 35 36 37 38 39 40 41 42 43 44 45 46 47 48 49 50
000
NZUS43 KILX 301410
HWRILX

AREA WEATHER ROUNDUP
NATIONAL WEATHER SERVICE, LINCOLN IL
900 AM CDT SAT APR 30 2016


CITY           SKY/WX    TMP DP  RH WIND       PRES   REMARKS
BLOOMINGTON    LGT RAIN  50  50 100 E18       29.92F FOG
CHAMPAIGN      RAIN      52  51  97 E18       29.93F FOG
DANVILLE       RAIN      49  48  97 E12       29.96R
DECATUR        LGT RAIN  54  51  90 E21G28    29.89F FOG
EFFINGHAM      LGT RAIN  57  57 100 E15G21    29.92S
FLORA          LGT RAIN  59  57  94 E10       29.89F
GALESBURG      LGT RAIN  48  47  96 E18G29    29.85F
JACKSONVILLE   LGT RAIN  55  54  94 E17       29.81F
LACON          LGT RAIN  49  47  94 E14G20    29.93F
LAWRENCEVILLE  LGT RAIN  58  58 100 E13       29.92F FOG
LITCHFIELD     CLOUDY    56  54  92 E20G25    29.79F
$$


CITY           SKY/WX    TMP DP  RH WIND       PRES   REMARKS
LINCOLN        LGT RAIN  54  53  97 E17       29.87F
MACOMB         LGT RAIN  50  50  99 E23G31    29.82F
MATTOON        LGT RAIN  55  52  89 E14       29.91F FOG
MT CARMEL AP   NOT AVBL
OLNEY-NOBLE AP RAIN      55  55 100 E12       29.90F
PARIS          LGT RAIN  53  53  99 E10       29.97F
PEORIA         RAIN      50  48  93 E15       29.88F FOG
PONTIAC        LGT RAIN  50  49  97 E20G26    29.97S
RANTOUL        LGT RAIN  52  51  96 E12       29.96S
ROBINSON       LGT RAIN  56  55  97 E10       29.95S
SPRINGFIELD    LGT RAIN  56  55  97 E18G26    29.84F FOG
TAYLORVILLE    LGT RAIN  55  54  94 SE16G25   29.84F
$$

...REGIONAL REPORTS...


CITY           SKY/WX    TMP DP  RH WIND       PRES   REMARKS
CHICAGO O`HARE CLOUDY    48  41  76 E14       30.04S
KANKAKEE       LGT RAIN  48  45  88 E14       30.01S
MOLINE         LGT RAIN  48  44  86 E20G26    29.89F FOG
MOUNT STERLING RAIN      52  51  97 E15G21    29.79R
MOUNT VERNON   CLOUDY    57  54  88 E9        29.86F
PITTSFIELD     LGT RAIN  56  55  98 E12       29.79S
QUINCY         LGT RAIN  53  52  96 E16       29.75F FOG
ROCKFORD       CLOUDY    48  42  80 E10       30.04S
$$


CITY           SKY/WX    TMP DP  RH WIND       PRES   REMARKS
BURLINGTON     CLOUDY    50  32  50 E10       29.82F HAZE
CEDAR RAPIDS   CLOUDY    46  45  96 E20G28    29.87F FOG
DES MOINES     RAIN      46  43  89 E14G23    29.79F FOG
KIRKSVILLE     LGT RAIN  50  48  93 E13       29.74F FOG
OTTUMWA        LGT RAIN  47  46  97 E16G23    29.80F FOG
ST LOUIS       CLOUDY    61  58  90 SE5       29.79R
$$


CITY           SKY/WX    TMP DP  RH WIND       PRES   REMARKS
TERRE HAUTE    LGT RAIN  55  52  89 E10       29.96F FOG
EVANSVILLE     LGT RAIN  59  56  89 E12       29.90F
INDIANAPOLIS   LGT RAIN  50  48  93 E9        30.00R FOG
LAFAYETTE      LGT RAIN  49  46  90 E10       30.01R FOG
MADISON        CLOUDY    45  35  68 E13       30.07S
MILWAUKEE      CLOUDY    44  39  82 E16       30.08F
$$






USA.gov is the U.S. government's official web portal to all federal, state and local government web resources and services.